Showing default

JILIN-01 KUANFU 01, 45016

Orbit data source: Space-Track

JILIN-01 KUANFU 01, 45016 is a payload satellite owned by Changguang WJ (CN) in SSO that was launched on Wed, 15 Jan 2020 UTC via a CHANG ZHENG 2D launch vehicle from the Taiyaun Space Center, China (TSC). Payload-class satellites include a variety of spacecraft equipped with specific instruments for various scientific and technological missions. These include communications satellites like Starlink; space stations such as the ISS; scientific satellites like the Hubble; Earth observation satellites from companies like Planet Labs, Umbra, and HawkEye 360; GPS; miniature CubeSats for education and research; and military/defense satellites.

Loading next visibility...
Identifier
45016, 2020-003A
Orbit
SSO
Last TLE update
4 hours ago
Origin
Manufacturer
HARB/CIOMP
Mission
Operational Commercial Imaging
Bus & Motor
JL-1, Unknown motor
Mass
1,250 kg wet, 1,250 kg dry
Launch date (UTC)
2020-01-15 (5 years ago)
Launch vehicle
CHANG ZHENG 2D
Launch site
Taiyaun Space Center, China (TSC)
Object type
Payload
Rocket body
Debris
Shape & HBR
Box + 2 Pan, 1.5 m
Radar Cross Section
2.000 m², Large (>1 m²)

Expand to show TLE details & history

TLE from 4 hours ago
0 JILIN-01 KUANFU 01
1 45016U 20003A   25189.14018243  .00002660  00000-0  16354-3 0  9995
2 45016  97.5409 264.3012 0003430 154.2953 205.8448 15.10897993303402
Epoch: 2025-07-08T03:21Z
TLE epoch observation values (Epoch: 2025-07-08T03:21:51.761Z)
Latitude
-0.00004°
Longitude
-72.50391°
Altitude
538.668 km
Speed
7.592 km/s
True Right ascension
17h 37m 12s
True Declination
0° 00' 00"
Sunlit
Object was in full shadow at epoch
Visualization orbit readout
Latitude
25.19494°
Longitude
111.2056°
Altitude
534.272 km
Speed
7.599 km/s
Apparent Right ascension
06h 30m 10s
Apparent Declination
-5° 57' 47"
Sunlit
Object is in daylight
Visualization observer readout
Local Sidereal Time
19:19:02
Azimuth
21.146° NNE
Elevation
-54.314°
Doppler factor
1
Orbital elements
Apogee altitude
532.813 km
Perigee altitude
528.074 km
Semi-major axis
6,908.581 km
Eccentricity
0.00034
Inclination
97.5409°
RAAN
264.3012°
Arg. of periapsis
154.2953°
True anomaly
Unknown
Mean anomaly
205.8448°
Eccentric anomaly
Unknown
Mean motion
3.77972 °/min
Orbital period
95.25 mins
BSTAR
0.00016354
Loading maneuver chart data...
Loading SW <> Apogee altitude chart data...
Loading historical data...
Loading historical data...
Loading historical data...
Loading historical data...
Loading historical data...
Loading historical data...
Loading historical data...

JILIN-01 KUANFU 01 Visibility forecast

Observer location: undefined°, undefined°

Span
Click to sort rows by Start time (UTC) header in descending order
Start Az.
Max El. time (UTC)
Max El. Az.
Max El.
End time (UTC)
End Az.
6 mins2025-07-08 18:14:30.987Z353.874° N2025-07-08 18:16:30.987Z307.621° NW36.498°2025-07-08 18:20:30.987Z210.634° SW
5 mins2025-07-09 04:56:30.987Z153.854° SSE2025-07-09 04:58:30.987Z73.936° E43.244°2025-07-09 05:01:30.987Z354.274° N
|